sat.trackr.live / text

‹ back to catalog

KUIPER-00208

NORAD 67775 · 2026-030M

PAYLOAD ACTIVE UNKNOWN

§ Identity

Operator
Country
US
Launch date
2026-02-12
Launch site
FRGUI
Launch vehicle
Mass (kg)
RCS (m²)

External: N2YO · Heavens-Above · Gunter

§ Orbital elements

Epoch: 2026-09-19T01:26:24.781920Z

Period
97.30 min
Inclination
51.8975°
Eccentricity
0.0001343
Mean motion
14.79928338 rev/d
Perigee alt
628.6 km
Apogee alt
630.5 km
Semi-major
7,007.7 km
B*
3.8649e-5
RAAN
75.5133°
Arg perigee
115.6759°
Mean anomaly
244.4342°
Rev number
3,384

§ Raw data

KUIPER-002081 67775U 26030M   26262.06000905  .00000073  00000+0  38649-4 0  99942 67775  51.8975  75.5133 0001343 115.6759 244.4342 14.79928338 33843

JSON: /api/v1/satellites/67775 · /tle

For live sub-satellite position, see the globe view (requires WebGL).

§ Visibility from observer

Set your observer location to see the next 7 days of passes ≥ 10°. The values pass through the URL so the page stays shareable.

No JS? Fill the form by hand. The geolocation button needs JavaScript.